Hourly Weather Roundup
Issued by NWS Central Illinois

Home | Current Version | Previous Version | Text Only | Print | Product List | Glossary On
Versions: 1 2 3 4 5 6 7 8 9 10 11 12 13 14 15 16 17 18 19 20 21 22 23 24 25 26 27 28 29 30 31 32 33 34 35 36 37 38 39 40 41 42 43 44 45 46 47 48 49 50
000
NZUS43 KILX 220110
HWRILX

AREA WEATHER ROUNDUP
NATIONAL WEATHER SERVICE, LINCOLN IL
700 PM CST SUN DEC 21 2014


CITY           SKY/WX    TMP DP  RH WIND       PRES   REMARKS
BLOOMINGTON    PTCLDY    34  30  85 SE13      30.04F WCI  25
CHAMPAIGN      PTCLDY    31  28  89 SE8       30.07F WCI  23
DECATUR        PTCLDY    34  29  82 SE13      30.05F WCI  25
FLORA          PTCLDY    34  30  86 SE7       30.09R WCI  28
GALESBURG      CLOUDY    36  32  85 SE7       29.98R WCI  31
JACKSONVILLE   CLOUDY    41  32  72 SE12      30.00R WCI  34
LACON          CLOUDY    34  30  84 SE13      30.02F WCI  25
LAWRENCEVILLE  PTCLDY    32  28  85 E9        30.10F FOG     WCI  24
LITCHFIELD     CLOUDY    38  29  69 SE7       30.03S WCI  33
$$


CITY           SKY/WX    TMP DP  RH WIND       PRES   REMARKS
LINCOLN        CLOUDY    36  32  85 SE7       30.04S WCI  30
MACOMB         CLOUDY    37  34  88 SE13      30.00S WCI  29
MATTOON        PTCLDY    34  28  79 SE12      30.06F WCI  25
MT CARMEL AP   CLEAR     34  30  86 E9        30.08F WCI  26
OLNEY-NOBLE AP PTCLDY    34  30  86 CALM      30.09S
PARIS          FAIR      33  31  94 CALM      30.10F
PEORIA         CLOUDY    38  30  73 SE12      30.02F WCI  30
PONTIAC        CLOUDY    34  32  91 SE12      30.06F WCI  26
RANTOUL        CLEAR     33  30  89 SE8       30.07F WCI  26
ROBINSON       PTCLDY    29  28  92 E6        30.11F WCI  23
SPRINGFIELD    CLOUDY    39  30  70 SE13      30.01F WCI  31
TAYLORVILLE    CLOUDY    36  30  80 SE12      30.03F WCI  27
$$

...REGIONAL REPORTS...


CITY           SKY/WX    TMP DP  RH WIND       PRES   REMARKS
CHICAGO O`HARE CLOUDY    35  29  78 S10       30.08S WCI  27
KANKAKEE       CLOUDY    34  31  87 E7        30.09F WCI  28
MOLINE         CLOUDY    36  31  82 SE14      29.97R WCI  27
MOUNT VERNON   PTCLDY    37  28  70 E5        30.08S WCI  34
PITTSFIELD     CLOUDY    40  35  80 SE8       29.99S WCI  35
QUINCY         CLOUDY    41  33  73 S14       29.95S WCI  33
ROCKFORD       CLOUDY    36  29  75 S16G24    30.03F WCI  26
$$


CITY           SKY/WX    TMP DP  RH WIND       PRES   REMARKS
BURLINGTON     CLOUDY    39  34  82 SE14      29.94S WCI  31
CEDAR RAPIDS   LGT RAIN  39  36  89 S7        29.88F WCI  34
DES MOINES     DRIZZLE   43  38  82 S14       29.80F
KIRKSVILLE     LGT RAIN  41  40  96 SE13      29.89S FOG     WCI  34
OTTUMWA        CLOUDY    41  38  89 SE8       29.87F
ST LOUIS       CLOUDY    43  31  62 SE14      30.01F
$$


CITY           SKY/WX    TMP DP  RH WIND       PRES   REMARKS
TERRE HAUTE    CLEAR     33  27  78 SE3       30.11S
EVANSVILLE     CLEAR     35  28  75 NE3       30.10F
INDIANAPOLIS   MOCLDY    30  26  85 E8        30.11S WCI  22
LAFAYETTE      CLEAR     28  25  88 E6        30.11F WCI  22
MADISON        CLOUDY    36  30  79 S14       29.97S WCI  27
MILWAUKEE      CLOUDY    36  28  73 S13       30.06S WCI  27
$$





USA.gov is the U.S. government's official web portal to all federal, state and local government web resources and services.